Regional Weather Roundup
Issued by NWS Bismarck, ND

Home | Current Version | Previous Version | Text Only | Print | Product List | Glossary On
Versions: 1 2 3 4 5 6 7 8 9 10 11 12 13 14 15 16 17 18 19 20 21 22 23 24 25 26 27 28 29 30 31 32 33 34 35 36 37 38 39 40 41 42 43 44 45 46 47 48 49 50
886
ASUS43 KBIS 120110
RWRBIS

NWR BROADCAST TEXT
NATIONAL WEATHER SERVICE BISMARCK ND
700 PM CST THU FEB 11 2016

NOTE: "FAIR" INDICATES FEW OR NO CLOUDS BELOW 12,000 FEET WITH NO
SIGNIFICANT WEATHER AND/OR OBSTRUCTIONS TO VISIBILITY.


CITY           SKY/WX    TMP DP  RH WIND       PRES   REMARKS
WILLISTON      FLURRIES  22  16  78 N7        30.27R WCI  13
MINOT          CLOUDY    20  10  65 NW5       30.27R WCI  13
MINOT AFB      CLOUDY    17  12  81 CALM      30.27R
BISMARCK       CLOUDY    24  15  68 N8        30.25R WCI  15
DICKINSON      CLOUDY    22  18  85 CALM      30.18F
GARRISON         N/A     19  14  81 NW9       30.26R WCI   8
HETTINGER ARPT CLOUDY    24  20  84 N7        30.21R WCI  16
JAMESTOWN      CLOUDY    14   9  80 N8        30.23R WCI   3
BEACH          CLOUDY    25  25 100 N8        30.24R WCI  16
CARRINGTON     CLOUDY    12  12 100 N8        30.27R WCI   1
HAZEN          CLOUDY    19  14  79 N9        30.29R WCI   9
LINTON         CLOUDY    19  19 100 N7        30.25R WCI  10
MANDAN         CLOUDY    19  16  86 N6        30.24R WCI  11
OAKES          CLOUDY    14  10  85 N5        30.24R WCI   6
RUGBY          CLOUDY    14   9  79 NW12      30.26R WCI   0
STANLEY        CLOUDY    19  18  93 NW7       30.27R WCI  10
TIOGA          CLOUDY    18  18 100 N9        30.30R WCI   6
WATFORD CITY   CLOUDY    23  18  80 N8        30.26R WCI  14
$$

CITY           SKY/WX    TMP DP  RH WIND       PRES   REMARKS
GRAND FORKS    CLOUDY    14   7  73 N10       30.28R WCI   1
GRAND FORKS AF FLURRIES  13   7  79 N9        30.27R WCI   0
DEVILS LAKE    FLURRIES   6   3  87 NW5       30.27R WCI  -3
FARGO          CLOUDY    13   5  70 NW7       30.26R WCI   3
CAVALIER       MOCLDY    10   5  79 N9        30.30R WCI  -2
GRAFTON        CLOUDY    10   5  79 N8        30.31R WCI  -1
GWINNER        CLOUDY    16  12  86 N7        30.24R WCI   6
LANGDON        CLOUDY     9   3  78 N6        30.24R WCI  -1
ROLLA          FLURRIES   9   5  85 NW8       30.24R WCI  -4
WALHALLA       FAIR       9   7  92 N7        30.30R WCI  -3
$$

CITY           SKY/WX    TMP DP  RH WIND       PRES   REMARKS
ABERDEEN       MOCLDY    18  12  77 N8        30.23R WCI   8
MOBRIDGE       CLOUDY    28  23  81 N7        30.18R
BUFFALO          N/A     32  29  88 N10       30.12R
RAPID CITY     PTCLDY    38  31  76 N13       30.14R
GLASGOW        CLOUDY    31  24  75 CALM      30.24R
SIDNEY         CLOUDY    25  19  80 N8        30.27R WCI  16
WOLF POINT     CLOUDY    28  21  75 E3        30.27R
GLENDIVE       CLOUDY    27  25  93 N6        30.26R WCI  20
MILES CITY     CLOUDY    35  28  75 N10       30.22R
BAKER          CLOUDY    30  25  81 NW12      30.21R
$$

CITY           SKY/WX    TMP DP  RH WIND       PRES   REMARKS
BILLINGS       MOCLDY    49  21  33 NW7       30.20R
GREAT FALLS    PTCLDY    45  30  55 NE9       30.24R
REGINA         CLOUDY    12   7  79 N12       30.31R WCI  -2
ESTEVAN        FLURRIES  19  14  79 N10       30.27R WCI   8
$$





USA.gov is the U.S. government's official web portal to all federal, state and local government web resources and services.